Temp
47 47 46 45 45 49 51 51 51 50 50 50 49 49 49 49 48 46 45 49 45 38 40 44 48 44 43 44 34 32 34 32 32 33 34 33 33 31 27 28 24 26 25 24 28 26 25 40 37 39 46 41 43 41
44 45 46 46 44 47 51 51 50 50 50 49 49 48 48 48 48 48 42 49 48 42 39 43 44 44 50 52 38 37 38 33 37 34 33 34 32 28 28 24 33 29 34 28 32 33 40 42 43 44 42 45 43 43
45 45 46 45 43 46 50 50 49 49 49 49 49 48 48 48 47 47 42 44 43 34 36 38 39 45 47 48 51 36 37 42 39 42 36 34 33 33 30 28 29 31 36 29 31 37 39 39 43 43 42 43 44 43
46 45 45 45 43 46 50 49 49 49 49 49 49 48 47 47 47 47 42 45 43 38 33 34 43 41 46 47 48 49 45 44 43 40 34 33 33 34 30 33 33 31 35 28 28 36 38 40 42 46 46 43 43 43
46 45 45 46 43 46 50 48 48 48 48 48 48 48 47 46 46 45 44 45 45 40 33 33 35 41 43 45 44 45 45 42 36 33 33 32 34 34 30 30 27 31 31 33 33 41 46 49 46 44 42 43 43 41
45 45 45 46 44 46 48 47 45 45 47 47 48 48 47 46 46 40 33 44 46 44 33 31 34 34 38 43 43 41 43 38 36 35 33 34 34 35 33 33 37 36 37 43 44 41 41 38 36 37 38 39 38 39
45 44 45 46 45 46 47 47 47 47 47 47 47 47 46 46 41 36 32 38 44 45 33 32 32 33 34 35 34 34 36 33 34 33 33 34 33 36 33 33 38 39 43 42 39 39 39 36 41 34 34 33 31 31
42 43 45 45 43 46 46 47 47 46 47 47 47 46 45 45 43 35 40 46 44 38 33 31 30 32 34 33 33 33 33 33 32 32 32 32 32 33 31 35 41 42 40 39 39 38 39 33 32 28 26 28 32 34
39 39 43 45 46 47 46 46 46 46 46 46 46 45 40 36 31 33 44 45 41 37 31 32 28 28 33 33 33 32 33 31 32 32 32 33 31 30 34 35 37 34 33 33 28 29 30 30 30 26 23 24 25 28
40 40 46 46 46 46 46 46 46 46 46 44 38 30 22 31 41 42 36 32 32 32 32 31 33 29 33 32 32 32 32 31 27 31 33 30 32 30 26 24 24 24 23 22 26 28 25 25 23 23 19 18 21 28
40 40 44 45 45 45 45 46 46 45 43 32 25 22 34 40 35 30 29 28 30 27 32 30 33 30 33 31 32 33 31 31 28 30 31 29 29 26 22 20 20 19 19 19 22 23 22 21 21 18 19 18 20 18
40 37 40 44 44 45 46 46 45 35 32 32 31 34 32 29 28 25 25 25 25 26 30 29 31 33 32 33 33 31 31 31 26 33 30 26 22 13 14 12 12 12 11 14 16 17 17 17 15 11 13 14 15 13
43 40 36 41 43 44 45 44 44 41 38 32 28 23 24 19 19 20 19 16 19 28 30 31 30 32 31 32 32 31 28 27 32 28 27 17 8 5 4 7 7 5 8 9 11 11 13 14 14 12 12 11 11 11
42 42 43 41 40 42 43 43 43 39 30 20 16 11 15 16 19 21 16 17 21 27 30 30 30 30 32 30 32 28 26 30 25 21 18 13 1 -1 0 0 1 1 3 7 7 9 8 8 10 11 12 12 13 11
41 41 41 41 43 44 44 45 42 33 24 16 17 10 14 18 18 12 14 19 20 30 31 29 26 27 29 27 27 27 24 23 21 18 8 6 -2 -3 -1 0 0 1 2 3 5 6 7 7 7 8 8 9 8 10
41 40 36 41 42 43 43 40 34 31 21 17 14 12 13 14 18 18 16 24 26 29 30 27 28 25 20 26 21 17 15 11 10 2 1 1 -2 -2 -3 -2 -1 -1 1 3 5 4 4 5 4 5 8 7 7 7
41 27 39 41 41 41 41 30 28 27 21 15 11 11 16 15 16 20 19 21 25 26 25 26 21 16 21 12 14 18 16 5 5 5 5 3 1 0 1 2 0 -0 -1 0 1 4 5 5 6 7 6 7 6 8
28 32 37 38 37 33 26 25 27 24 17 18 9 13 15 14 17 19 18 19 19 24 26 22 22 19 14 12 5 2 3 8 9 6 3 2 1 3 5 4 5 5 6 5 5 6 7 7 5 6 6 8 6 8
33 33 35 36 35 27 20 18 18 17 8 10 11 14 17 14 15 16 15 16 15 17 20 24 21 19 12 9 4 1 4 -1 1 3 3 3 3 2 1 2 3 2 2 1 1 3 4 5 4 4 5 4 4 4
34 33 31 32 35 22 13 13 13 12 4 8 12 13 13 11 11 12 11 9 13 17 16 18 18 11 10 4 3 11 10 7 3 -1 1 2 3 2 0 -0 0 1 4 4 1 3 3 4 5 5 6 7 6 6
29 26 28 22 16 11 9 7 8 8 10 8 11 13 10 12 10 10 9 2 10 4 4 -3 -6 -10 -7 -4 -3 -0 1 6 1 3 5 0 -2 2 1 -1 -3 -0 -0 -0 -2 -0 1 -0 1 3 3 3 5 6
14 27 18 21 15 9 1 1 7 9 11 8 10 10 12 12 9 3 -4 6 4 -4 -7 -7 -9 -10 -10 -11 -12 -10 -7 -5 -5 -3 0 -0 -4 -3 -5 -6 -3 -3 -2 -4 -3 -3 -0 -0 -0 1 0 1 1 1
20 18 9 9 9 6 -4 -4 -0 -0 6 8 7 8 6 6 1 -4 2 -9 -13 -16 -17 -16 -17 -15 -14 -18 -17 -17 -17 -11 -7 -8 -7 -8 -8 -10 -7 -10 -10 -10 -10 -9 -8 -6 -6 -2 -3 -3 -1 1 1 1
14 -1 -4 -5 -4 -6 -8 -9 -7 -6 -3 -3 -0 -1 -4 -6 -7 -1 1 -7 -18 -19 -20 -21 -17 -16 -16 -16 -15 -16 -18 -17 -15 -17 -17 -10 -8 -13 -12 -14 -14 -14 -13 -13 -11 -10 -9 -10 -5 -6 -5 -6 -6 -7
11 1 -3 -7 -10 -6 -8 -8 -10 -8 -11 -16 -10 -11 -12 -17 -8 -8 -5 -9 -20 -22 -21 -24 -21 -17 -16 -18 -19 -21 -25 -20 -14 -18 -20 -20 -16 -18 -17 -15 -14 -14 -14 -13 -15 -16 -16 -15 -12 -10 -9 -10 -9 -12
10 -10 -6 -11 -12 -5 -11 -9 -11 -11 -15 -14 -17 -21 -22 -14 -8 -3 -6 -15 -20 -20 -18 -18 -17 -20 -21 -19 -18 -20 -19 -23 -19 -17 -20 -20 -19 -15 -17 -17 -18 -16 -18 -18 -18 -18 -16 -15 -15 -13 -13 -12 -9 -12
-0 -8 -13 -12 -15 -15 -16 -17 -18 -16 -16 -12 -19 -19 -16 -9 -8 -5 -18 -19 -18 -21 -19 -16 -15 -18 -18 -20 -23 -24 -21 -22 -21 -19 -20 -20 -19 -20 -16 -16 -16 -16 -18 -18 -18 -19 -18 -18 -16 -16 -15 -13 -16 -16
-9 -11 -9 -13 -17 -18 -19 -20 -18 -15 -16 -20 -16 -12 -5 -3 -3 -14 -16 -19 -23 -22 -21 -23 -23 -22 -20 -21 -18 -18 -22 -26 -25 -23 -21 -20 -22 -19 -19 -19 -18 -3 -15 -16 -15 -15 -16 -16 -16 -15 -15 -15 -13 -10
-16 -16 -13 -21 -22 -20 -21 -18 -18 -23 -25 -22 -15 -15 -14 -15 -16 -17 -18 -20 -21 -17 -20 -22 -26 -26 -23 -24 -25 -25 -19 -18 -18 -22 -23 -22 -20 -16 -17 -19 -18 -17 -17 -17 -5 -7 -11 -11 -10 -11 -12 -11 -13 -11
-23 -25 -20 -23 -19 -18 -23 -28 -25 -28 -25 -24 -23 -19 -16 -14 -14 -15 -13 -12 -12 -12 -11 -12 -16 -16 -19 -18 -23 -24 -26 -24 -23 -19 -20 -21 -16 -18 -16 -16 -19 -20 -19 -17 -10 -2 6 -3 -4 -12 -12 -11 -11 -10
-30 -25 -20 -20 -22 -27 -32 -34 -33 -32 -30 -26 -25 -22 -18 -18 -16 -14 -10 -9 -8 -10 -12 -15 -17 -17 -15 -20 -22 -24 -24 -23 -21 -21 -23 -23 -24 -22 -21 -20 -20 -19 -17 -13 -11 -11 -10 -13 -14 -13 -13 -14 -16 -19
-29 -30 -24 -23 -26 -33 -35 -32 -32 -29 -29 -28 -27 -30 -25 -22 -17 -13 -17 -11 -13 -14 -12 -12 -14 -14 -12 -15 -18 -21 -16 -19 -17 -20 -20 -22 -23 -23 -23 -23 -22 -19 -14 -13 -14 -15 -16 -17 -19 -19 -20 -22 -22 -23
-36 -34 -33 -31 -30 -28 -33 -32 -32 -32 -34 -35 -34 -38 -37 -32 -21 -22 -28 -28 -18 -13 -15 -17 -20 -17 -15 -17 -18 -23 -22 -22 -17 -6 -9 -10 -15 -18 -26 -27 -24 -18 -15 -17 -17 -17 -18 -19 -20 -23 -23 -23 -24 -26
MSLP
1005.13 1005.32 1005.47 1005.69 1005.83 1005.48 1006.00 1006.77 1007.33 1007.84 1008.53 1009.31 1009.62 1010.07 1010.24 1010.63 1010.81 1010.82 1010.33 1009.97 1009.85 1010.97 1010.96 1010.62 1010.40 1010.65 1011.32 1012.03 1013.96 1016.52 1017.81 1018.29 1018.35 1017.88 1018.04 1018.44 1018.81 1019.21 1019.78 1020.41 1021.06 1021.56 1022.35 1022.46 1022.20 1020.81 1018.27 1015.46 1016.77 1016.07 1013.54 1013.18 1013.13 1013.06
1004.94 1004.72 1004.59 1004.65 1005.15 1004.88 1005.20 1005.91 1006.76 1007.43 1008.23 1008.86 1009.43 1009.82 1010.18 1010.40 1010.56 1010.65 1010.59 1009.74 1010.11 1010.94 1011.36 1011.31 1010.98 1010.86 1010.83 1010.83 1012.98 1014.93 1014.83 1015.59 1016.04 1016.70 1017.04 1017.46 1017.98 1018.53 1018.58 1019.39 1019.37 1019.41 1017.89 1018.59 1018.17 1016.70 1014.75 1014.44 1013.39 1013.31 1013.42 1013.51 1013.20 1012.95
1004.15 1004.31 1004.27 1004.47 1004.72 1004.30 1004.57 1005.55 1006.33 1006.97 1007.67 1008.27 1009.19 1009.58 1010.10 1010.14 1010.43 1010.52 1010.45 1010.33 1010.14 1010.89 1011.53 1011.50 1010.91 1010.62 1010.90 1011.11 1011.19 1013.01 1014.35 1014.24 1014.69 1014.57 1015.86 1016.46 1016.77 1016.95 1017.28 1017.45 1017.61 1017.51 1016.94 1016.81 1016.84 1015.02 1014.29 1013.85 1013.46 1013.42 1013.43 1013.50 1013.25 1013.20
1003.58 1003.75 1003.92 1003.86 1004.10 1003.87 1004.06 1005.00 1005.76 1006.50 1007.31 1008.16 1008.86 1009.32 1009.78 1009.95 1010.22 1010.37 1010.49 1010.20 1010.68 1010.95 1011.60 1010.81 1010.42 1010.42 1010.24 1010.65 1011.21 1011.26 1011.88 1013.38 1013.94 1014.52 1015.43 1016.01 1016.11 1015.74 1016.02 1015.80 1015.80 1015.80 1016.13 1016.07 1015.49 1014.36 1013.95 1013.29 1012.96 1012.80 1012.87 1012.97 1013.13 1013.27
1003.22 1003.47 1003.55 1003.56 1003.76 1003.53 1003.76 1004.73 1005.36 1006.21 1007.02 1007.91 1008.52 1009.03 1009.51 1009.92 1010.27 1010.52 1010.58 1010.42 1010.62 1010.97 1010.69 1010.88 1010.62 1010.58 1010.61 1010.28 1010.96 1011.47 1011.96 1012.70 1013.90 1014.86 1015.21 1015.45 1015.22 1015.56 1015.69 1015.65 1014.75 1014.55 1014.43 1014.45 1013.52 1012.62 1012.35 1012.27 1011.81 1012.09 1012.68 1012.80 1012.89 1013.51
1003.00 1003.12 1003.21 1003.26 1003.31 1003.46 1003.90 1004.73 1005.65 1005.87 1006.75 1007.64 1008.32 1008.87 1009.49 1009.84 1010.14 1010.36 1010.45 1009.70 1010.15 1010.44 1010.64 1011.28 1010.84 1010.67 1010.58 1010.74 1010.90 1011.58 1012.13 1012.79 1013.26 1013.95 1014.65 1014.70 1014.34 1014.55 1014.86 1013.96 1012.52 1012.54 1012.46 1011.96 1011.84 1012.04 1012.27 1012.24 1012.42 1012.71 1013.12 1013.39 1013.58 1013.84
1002.69 1002.67 1002.33 1002.34 1002.77 1002.92 1003.70 1004.55 1005.27 1006.08 1006.86 1007.50 1008.25 1008.90 1009.47 1009.90 1010.27 1010.47 1010.35 1010.32 1010.29 1010.43 1010.91 1010.80 1010.85 1011.11 1011.01 1010.99 1011.61 1012.07 1012.32 1012.74 1013.42 1013.93 1014.07 1014.00 1014.10 1014.12 1013.94 1012.62 1011.84 1011.82 1011.78 1011.92 1011.85 1012.23 1012.81 1013.10 1013.26 1013.80 1014.18 1014.17 1013.92 1013.99
1002.22 1001.79 1001.30 1001.63 1002.59 1003.07 1003.71 1004.53 1005.40 1006.20 1007.10 1007.80 1008.46 1009.08 1009.57 1010.03 1010.27 1010.35 1009.61 1009.67 1010.08 1010.11 1010.79 1010.31 1010.63 1011.17 1010.82 1011.09 1011.93 1012.14 1012.47 1012.99 1013.49 1013.48 1013.77 1013.81 1014.30 1013.99 1013.44 1011.64 1011.87 1012.18 1012.45 1012.45 1012.52 1012.57 1013.06 1013.75 1014.23 1014.94 1014.87 1015.02 1014.98 1014.95
1002.12 1001.77 1001.58 1001.88 1002.45 1003.04 1003.84 1004.76 1005.74 1006.72 1007.50 1008.22 1008.76 1009.37 1009.86 1010.18 1010.51 1010.28 1009.84 1009.48 1009.92 1010.08 1009.74 1009.57 1009.57 1010.38 1010.69 1010.97 1011.45 1011.98 1011.96 1012.47 1012.80 1012.92 1013.36 1013.67 1013.70 1013.26 1011.91 1012.39 1013.02 1013.21 1013.60 1013.68 1014.18 1014.26 1014.24 1014.76 1015.67 1016.21 1016.45 1016.70 1016.60 1016.26
1002.24 1001.92 1001.68 1002.10 1002.77 1003.52 1004.25 1005.29 1006.14 1006.98 1007.85 1008.64 1009.30 1009.86 1010.22 1010.35 1010.10 1010.02 1009.77 1009.80 1009.65 1009.01 1009.32 1008.89 1008.60 1009.58 1009.91 1010.16 1010.68 1011.37 1011.27 1011.58 1011.96 1012.11 1012.63 1013.20 1013.17 1012.64 1013.13 1014.03 1014.60 1015.07 1015.60 1015.62 1015.62 1015.83 1015.96 1016.55 1017.18 1017.60 1017.83 1017.97 1017.68 1017.33
1002.95 1002.96 1002.60 1002.93 1003.53 1004.29 1005.09 1005.71 1006.54 1007.40 1008.27 1009.02 1009.86 1010.16 1010.20 1010.05 1010.05 1009.97 1009.20 1008.77 1008.47 1008.15 1007.69 1007.78 1008.05 1008.54 1009.39 1009.38 1009.60 1010.07 1010.22 1010.60 1010.75 1011.08 1012.04 1013.27 1013.70 1013.96 1015.25 1015.94 1016.59 1017.28 1017.81 1017.88 1017.85 1017.37 1017.66 1018.26 1018.63 1018.77 1018.62 1018.51 1018.30 1018.25
1004.22 1004.21 1003.75 1003.83 1004.49 1004.86 1005.44 1006.17 1006.98 1007.85 1008.71 1009.15 1009.71 1010.26 1010.39 1010.39 1009.83 1009.44 1008.30 1008.12 1007.80 1007.29 1007.13 1007.19 1007.50 1008.10 1008.87 1008.72 1008.73 1009.43 1009.31 1009.90 1009.81 1010.31 1012.05 1013.45 1013.70 1016.07 1017.18 1018.24 1018.92 1019.44 1019.81 1019.42 1019.62 1019.10 1019.02 1019.11 1019.42 1019.59 1019.61 1019.56 1019.49 1019.28
1004.98 1005.04 1004.67 1004.71 1005.22 1005.73 1006.24 1006.90 1007.52 1008.07 1008.66 1009.38 1009.96 1010.47 1010.59 1010.38 1009.92 1009.04 1007.87 1007.97 1007.53 1007.18 1007.01 1006.89 1007.13 1007.40 1008.31 1008.32 1008.29 1008.68 1008.81 1009.14 1009.52 1011.14 1012.61 1013.93 1016.36 1018.25 1019.54 1020.28 1020.85 1021.06 1020.77 1020.60 1020.59 1020.20 1020.02 1019.92 1019.99 1020.19 1020.50 1020.65 1020.47 1020.11
1005.92 1005.72 1005.63 1006.05 1006.36 1006.59 1006.84 1007.27 1007.80 1008.33 1008.98 1010.14 1010.81 1011.08 1011.03 1010.51 1010.10 1009.28 1009.15 1008.12 1007.67 1007.07 1007.00 1006.88 1007.23 1007.36 1007.67 1008.02 1008.07 1007.94 1008.12 1008.87 1010.55 1012.08 1013.89 1015.93 1018.20 1019.82 1020.89 1021.45 1021.66 1022.20 1022.11 1021.90 1021.46 1021.35 1021.11 1020.94 1020.93 1021.08 1021.39 1021.46 1021.44 1020.97
1006.39 1006.37 1006.33 1006.34 1006.44 1006.69 1006.94 1007.32 1008.11 1008.81 1009.55 1010.71 1011.27 1011.41 1010.94 1010.55 1010.44 1010.19 1009.85 1009.29 1008.39 1007.33 1007.11 1007.36 1007.70 1007.71 1007.85 1008.10 1008.13 1008.31 1009.27 1009.70 1011.15 1013.43 1015.64 1017.80 1019.85 1021.10 1021.87 1022.45 1022.83 1023.14 1022.98 1022.58 1022.31 1022.22 1022.12 1021.83 1021.69 1021.77 1022.06 1022.15 1021.97 1021.79
1006.22 1006.47 1006.71 1006.82 1006.91 1007.04 1007.18 1007.84 1008.98 1009.52 1010.16 1010.89 1011.36 1011.44 1011.23 1011.35 1010.81 1010.54 1010.27 1009.56 1009.09 1008.22 1007.74 1007.55 1007.62 1007.79 1007.94 1008.29 1008.85 1009.52 1011.00 1012.08 1013.74 1015.65 1017.82 1019.30 1020.83 1021.91 1022.60 1023.01 1023.33 1023.40 1023.23 1022.96 1022.87 1022.72 1022.61 1022.34 1022.23 1022.28 1022.07 1022.54 1022.75 1022.44
1006.02 1006.58 1006.51 1006.70 1007.11 1007.33 1007.55 1008.54 1009.28 1009.89 1010.57 1011.06 1011.46 1011.37 1011.37 1011.25 1011.16 1010.86 1010.67 1010.29 1009.79 1009.02 1008.19 1008.02 1008.11 1008.47 1009.19 1010.06 1011.27 1012.24 1013.40 1014.52 1015.96 1017.62 1019.27 1020.41 1021.77 1022.79 1023.27 1023.38 1023.57 1023.66 1023.61 1023.51 1023.32 1023.21 1022.93 1022.48 1022.29 1022.40 1022.31 1022.97 1023.16 1022.79
1006.27 1006.74 1006.93 1007.16 1007.46 1008.01 1008.96 1009.25 1009.65 1010.29 1010.74 1011.12 1011.78 1011.60 1011.79 1011.67 1011.57 1011.44 1011.38 1011.22 1010.86 1009.82 1009.38 1009.13 1009.60 1010.17 1011.37 1012.30 1013.52 1015.00 1016.23 1016.98 1017.94 1019.37 1020.57 1021.69 1022.71 1023.13 1023.23 1023.52 1023.79 1023.79 1023.72 1023.72 1023.64 1023.53 1023.10 1022.60 1022.75 1023.11 1023.19 1023.32 1023.12 1022.95
1006.43 1006.83 1007.06 1007.30 1007.66 1008.48 1009.66 1010.67 1010.93 1010.86 1011.61 1011.76 1012.11 1012.19 1011.97 1012.21 1012.47 1012.44 1012.48 1012.15 1011.89 1011.40 1010.90 1010.85 1011.67 1012.58 1013.67 1014.42 1015.07 1015.98 1017.37 1018.41 1019.77 1020.99 1021.82 1022.43 1023.03 1023.48 1023.68 1023.88 1024.18 1024.05 1024.02 1024.25 1024.23 1024.13 1023.95 1023.76 1023.72 1023.74 1023.70 1023.50 1023.69 1023.51
1006.81 1007.12 1007.17 1006.51 1006.79 1008.81 1010.66 1011.68 1011.74 1011.87 1012.38 1012.08 1012.34 1012.45 1012.54 1012.84 1013.03 1013.25 1013.49 1013.33 1012.90 1012.53 1013.24 1014.00 1014.98 1015.97 1016.64 1017.56 1018.05 1017.01 1018.09 1019.25 1020.43 1021.73 1022.72 1023.29 1023.71 1023.79 1024.06 1024.09 1024.41 1024.51 1024.54 1024.71 1024.73 1024.54 1024.35 1024.07 1024.09 1024.07 1024.00 1023.80 1023.83 1023.90
1007.25 1007.79 1007.66 1007.70 1009.18 1010.38 1012.11 1012.96 1013.03 1013.06 1012.88 1012.82 1012.85 1012.75 1013.24 1013.62 1013.99 1014.28 1014.75 1014.99 1014.79 1015.61 1016.77 1017.46 1018.30 1019.41 1020.02 1020.12 1020.19 1019.96 1020.38 1020.38 1021.47 1022.09 1022.47 1023.81 1024.43 1024.60 1024.84 1025.07 1025.08 1025.23 1025.30 1025.51 1025.58 1025.51 1025.17 1024.96 1024.94 1024.78 1024.67 1024.71 1024.95 1024.84
1008.13 1008.03 1008.55 1008.87 1010.47 1012.28 1013.74 1014.70 1014.39 1013.87 1013.64 1013.65 1013.63 1013.57 1013.98 1014.42 1015.14 1016.00 1016.68 1016.61 1017.44 1018.61 1019.42 1019.95 1020.62 1021.27 1021.84 1022.32 1022.64 1022.61 1022.72 1022.58 1022.82 1023.21 1023.36 1023.88 1024.77 1025.43 1025.89 1025.90 1025.87 1026.19 1026.47 1026.65 1026.57 1026.46 1026.26 1026.07 1025.84 1025.69 1025.60 1025.55 1025.81 1025.43
1008.18 1008.38 1009.34 1010.19 1011.51 1013.10 1015.79 1015.69 1015.33 1015.07 1014.80 1014.86 1014.91 1015.04 1015.70 1016.12 1016.81 1017.39 1018.03 1018.72 1019.81 1021.16 1021.53 1021.86 1022.39 1022.68 1023.19 1023.77 1024.18 1024.27 1024.10 1023.97 1024.30 1024.43 1024.62 1024.91 1025.39 1025.87 1026.22 1026.51 1026.49 1026.95 1027.26 1027.45 1027.06 1026.94 1026.97 1026.86 1026.82 1026.77 1026.55 1026.32 1026.06 1025.79
1009.02 1010.78 1012.01 1013.09 1013.59 1015.47 1016.24 1016.50 1016.32 1016.30 1016.20 1016.36 1016.50 1017.36 1017.90 1018.23 1018.19 1018.44 1018.86 1019.62 1021.10 1022.29 1022.78 1023.34 1023.41 1024.01 1024.48 1024.68 1025.08 1025.21 1025.30 1025.16 1025.43 1025.73 1025.77 1025.92 1026.27 1026.72 1026.60 1026.92 1027.09 1027.31 1027.55 1027.74 1027.79 1027.84 1027.90 1027.89 1027.72 1027.31 1026.73 1026.47 1026.54 1026.92
1010.71 1014.04 1014.94 1015.58 1015.91 1016.44 1017.22 1017.48 1017.67 1017.45 1018.13 1018.52 1018.83 1019.54 1019.52 1019.55 1019.33 1019.40 1019.77 1020.28 1021.46 1022.74 1023.37 1023.91 1024.11 1024.36 1024.70 1025.25 1025.65 1025.87 1025.89 1025.94 1026.11 1026.74 1026.65 1026.38 1026.85 1027.39 1027.69 1027.73 1027.91 1028.15 1028.04 1028.45 1028.77 1028.64 1028.45 1028.09 1027.72 1027.45 1027.32 1027.37 1027.83 1028.19
1012.36 1015.84 1016.90 1017.34 1017.66 1017.83 1018.53 1018.98 1019.22 1019.37 1019.42 1020.04 1020.48 1020.70 1020.49 1020.06 1020.02 1019.72 1019.31 1020.28 1021.35 1022.23 1022.98 1023.52 1023.92 1024.63 1024.87 1024.83 1025.50 1025.94 1025.92 1025.99 1025.92 1026.53 1026.92 1026.83 1026.92 1027.26 1027.60 1028.10 1028.24 1028.39 1028.11 1028.15 1028.59 1028.66 1028.55 1028.33 1028.18 1028.08 1028.17 1028.28 1028.53 1028.78
1014.72 1017.14 1018.21 1018.78 1018.88 1019.07 1019.83 1020.18 1020.33 1020.63 1021.06 1020.98 1021.16 1021.30 1020.97 1020.89 1020.37 1019.23 1019.89 1020.55 1021.50 1021.82 1022.00 1022.54 1023.19 1023.77 1024.18 1024.78 1025.22 1025.28 1025.56 1025.84 1026.01 1026.23 1026.17 1026.47 1026.67 1026.80 1027.10 1027.45 1027.56 1027.83 1027.83 1027.96 1028.16 1028.67 1028.75 1028.70 1028.60 1028.68 1028.88 1029.05 1029.29 1029.61
1017.06 1018.27 1019.00 1019.91 1020.25 1020.61 1021.31 1021.69 1021.83 1022.24 1021.72 1021.78 1021.53 1021.59 1020.95 1019.90 1019.53 1019.81 1020.31 1021.14 1021.47 1021.81 1022.42 1022.85 1023.17 1023.57 1024.05 1024.52 1024.87 1025.54 1026.14 1026.17 1026.13 1026.17 1026.27 1026.63 1026.87 1026.95 1027.03 1027.13 1027.32 1027.49 1027.77 1027.87 1027.96 1028.09 1028.24 1028.59 1028.71 1028.95 1029.32 1029.53 1029.72 1029.66
1019.40 1019.91 1020.14 1021.45 1021.80 1022.25 1022.80 1023.15 1023.33 1023.33 1023.28 1022.98 1022.76 1021.85 1020.87 1020.04 1019.80 1020.02 1020.61 1021.00 1021.54 1022.05 1022.77 1023.42 1024.24 1024.25 1024.63 1024.92 1025.16 1025.35 1025.62 1026.14 1026.49 1026.71 1026.78 1027.00 1027.33 1027.29 1026.81 1027.10 1027.35 1027.50 1027.64 1027.73 1027.75 1027.80 1027.91 1028.06 1028.37 1028.74 1029.33 1029.75 1029.96 1030.16
1021.90 1022.00 1021.93 1022.58 1023.18 1023.95 1024.64 1024.98 1025.12 1024.99 1024.58 1024.34 1023.95 1022.80 1021.80 1020.73 1020.04 1020.09 1020.41 1020.96 1021.35 1021.56 1021.82 1022.36 1023.23 1023.71 1024.41 1024.80 1025.37 1025.98 1025.91 1025.78 1026.15 1026.20 1026.47 1026.60 1026.65 1026.32 1026.48 1026.95 1027.32 1027.56 1027.63 1027.62 1027.50 1027.44 1027.59 1028.34 1028.80 1029.03 1029.73 1030.26 1030.70 1031.06
1023.74 1023.29 1023.28 1023.55 1024.60 1025.45 1026.13 1026.42 1026.17 1026.05 1025.70 1025.22 1024.85 1024.53 1023.47 1022.24 1020.65 1019.94 1020.12 1020.29 1020.59 1021.04 1021.55 1022.19 1022.81 1023.18 1023.67 1024.19 1024.71 1025.39 1025.84 1025.65 1025.45 1025.54 1025.74 1025.90 1026.06 1026.32 1026.64 1026.97 1027.38 1027.54 1027.66 1027.68 1027.83 1028.16 1028.65 1029.31 1029.73 1030.11 1030.60 1031.06 1031.54 1032.02
1024.96 1025.32 1025.23 1025.47 1025.94 1026.48 1026.81 1026.79 1026.45 1026.18 1025.88 1025.70 1025.43 1025.26 1024.47 1024.02 1022.75 1020.48 1019.86 1020.14 1020.74 1021.16 1021.21 1021.58 1022.18 1022.68 1022.99 1023.28 1023.74 1024.13 1024.32 1024.32 1024.82 1025.18 1025.48 1025.76 1026.14 1026.74 1026.98 1027.07 1027.28 1027.57 1027.84 1028.01 1028.30 1028.70 1029.24 1029.90 1030.42 1030.88 1031.37 1031.94 1032.45 1032.88
1026.88 1026.64 1026.55 1026.63 1026.76 1027.11 1027.34 1027.07 1026.71 1026.17 1026.20 1025.87 1026.05 1025.93 1025.85 1025.67 1023.92 1021.17 1020.38 1020.35 1020.57 1020.59 1020.93 1021.21 1021.72 1021.91 1022.44 1023.00 1023.68 1024.21 1024.48 1024.58 1024.52 1024.32 1024.89 1025.25 1025.87 1026.42 1027.20 1027.49 1027.56 1027.74 1027.90 1028.31 1028.78 1029.23 1029.94 1030.52 1031.09 1031.66 1032.19 1032.64 1033.13 1033.59
Wind_Speed
21 23 15 16 21 28 24 23 21 19 18 16 11 7 5 5 3 2 2 4 4 1 3 1 5 7 5 9 7 7 5 1 1 5 7 5 5 8 4 8 11 12 11 6 5 6 10 8 5 9 3 2 2 1
15 17 13 14 17 23 25 22 19 21 20 18 13 8 6 4 4 4 2 2 4 2 2 1 2 1 5 17 9 11 3 7 7 4 3 4 4 3 6 6 5 6 10 11 14 12 2 11 6 9 2 1 1 2
17 17 14 12 16 23 23 21 20 21 18 19 15 11 7 4 2 3 0 3 3 3 1 1 5 4 2 4 10 8 1 5 6 4 5 3 5 5 8 7 5 4 4 4 4 8 12 8 8 6 4 6 5 3
11 12 13 12 15 21 19 19 20 21 21 21 17 12 8 5 1 3 1 1 1 3 3 5 2 3 6 6 9 2 7 5 5 3 3 3 3 4 4 2 6 6 10 7 5 8 7 9 10 9 10 8 9 6
9 10 12 11 14 17 17 17 20 22 19 20 17 14 9 4 1 2 2 2 2 2 3 2 1 3 2 7 10 5 10 8 3 3 3 4 3 4 0 2 4 6 9 8 9 9 7 7 4 6 10 12 6 6
10 11 15 16 16 14 19 19 17 13 19 19 16 12 9 4 3 1 2 2 6 1 2 1 1 3 0 5 10 9 9 3 3 4 3 3 3 4 5 6 6 10 7 7 5 4 7 3 1 2 1 3 2 4
14 18 20 20 21 18 19 19 19 19 20 18 15 13 10 3 2 3 3 1 8 2 1 2 2 1 1 3 3 2 3 2 3 2 4 3 3 6 2 6 5 9 11 7 3 5 4 2 1 4 2 1 1 1
15 15 17 17 16 17 20 20 20 20 18 15 12 11 8 3 2 3 3 2 2 3 2 3 3 2 2 3 3 0 3 3 2 2 2 3 2 2 7 4 6 5 6 5 5 3 1 3 4 4 3 3 5 5
7 10 13 19 20 21 23 22 20 20 17 13 12 11 3 1 2 4 6 3 1 3 4 3 7 6 4 3 3 1 2 3 2 3 4 5 4 8 7 7 7 4 4 1 4 3 3 5 7 7 5 5 3 4
6 3 14 18 20 22 22 22 21 19 16 15 4 2 1 3 4 6 3 2 3 4 4 4 3 4 5 3 3 4 3 4 4 4 4 4 4 1 4 5 7 6 6 4 3 3 4 3 5 4 2 3 3 5
21 21 6 19 21 21 23 22 20 18 12 3 2 2 0 3 1 3 5 5 4 6 6 4 3 5 2 5 4 2 4 4 5 6 8 6 6 4 4 6 7 7 7 6 5 5 5 3 3 3 5 5 5 6
16 21 2 20 21 20 20 20 20 5 3 4 4 2 1 0 4 5 4 4 3 4 4 7 6 4 3 2 3 3 5 4 5 8 6 6 3 4 5 4 6 6 4 4 4 4 4 4 3 3 4 5 5 5
13 16 13 15 16 16 16 19 13 16 9 3 2 2 2 4 5 6 5 2 4 3 3 3 5 4 2 2 3 5 7 7 8 6 6 3 2 4 4 2 4 4 5 4 4 5 5 5 4 3 5 5 7 6
8 8 10 11 9 11 12 15 17 8 4 3 3 2 4 4 4 1 3 1 1 3 6 4 3 3 3 4 3 4 5 5 6 6 7 2 3 4 3 2 3 3 4 4 5 5 6 6 5 6 6 6 7 7
2 5 4 3 5 7 9 11 15 4 3 3 3 4 4 1 3 3 3 4 3 2 3 3 2 2 3 3 5 3 2 6 6 7 2 4 3 4 4 3 4 3 2 3 3 4 5 5 5 4 5 6 6 6
5 1 3 4 6 6 9 9 4 2 3 3 0 2 1 1 2 0 2 2 2 2 1 1 3 4 5 2 3 5 6 6 4 3 2 4 4 3 3 3 3 1 2 3 3 3 2 5 4 3 4 6 7 5
8 1 1 7 8 6 10 4 2 4 5 4 4 1 1 1 2 1 1 2 3 2 2 1 3 1 2 4 2 3 1 2 5 5 4 6 5 4 3 4 3 2 3 3 2 2 2 2 3 6 9 6 4 5
2 4 5 4 3 4 3 4 2 3 5 2 2 3 2 1 2 1 1 2 2 2 1 1 3 2 3 4 3 4 2 4 6 6 5 5 4 3 4 5 3 3 4 4 4 3 6 7 8 6 5 5 4 4
6 4 1 6 7 3 3 1 1 3 1 2 1 1 1 2 2 2 2 2 2 2 1 1 1 1 1 1 3 3 5 3 4 3 4 5 5 5 4 4 3 4 5 4 4 3 2 5 3 3 3 2 2 2
15 12 9 13 8 3 3 1 0 3 3 2 1 1 2 2 2 1 1 3 2 1 3 1 1 1 3 2 3 6 7 8 8 5 3 3 2 4 4 4 3 3 3 2 3 4 3 4 5 5 4 4 3 5
5 5 8 6 5 7 5 2 2 2 1 2 1 1 2 2 1 2 1 3 2 2 3 0 2 2 3 2 3 3 5 4 3 1 4 5 1 3 4 2 3 3 3 4 3 3 5 4 4 4 4 3 3 3
0 2 3 4 4 3 5 2 1 1 1 2 1 1 1 2 1 3 3 1 2 2 1 2 2 2 2 3 3 5 3 5 5 4 8 10 5 4 2 1 2 4 4 2 2 2 3 3 3 3 3 2 2 2
4 3 4 4 5 4 2 1 3 4 3 3 1 3 2 1 2 3 1 1 1 2 1 2 3 3 5 2 3 4 4 4 4 4 4 4 4 3 4 3 2 4 3 1 1 2 2 4 3 2 2 1 2 5
9 8 5 4 3 2 1 3 1 3 3 3 2 3 1 1 4 1 2 2 1 1 1 3 3 4 3 4 2 2 0 2 4 3 2 4 5 2 3 3 3 3 2 1 1 2 2 2 2 1 2 5 6 5
4 3 4 3 3 5 4 3 3 4 3 1 3 1 2 3 2 0 4 3 1 2 3 3 1 1 4 2 2 1 3 2 4 4 2 2 4 3 3 2 1 2 1 3 2 1 1 2 3 4 5 5 7 5
2 4 3 1 2 4 3 4 2 4 3 2 0 3 1 2 4 5 5 3 4 4 5 7 6 3 1 2 4 3 4 3 3 4 2 3 3 4 4 4 3 3 2 3 3 3 3 3 3 5 5 5 6 6
5 3 1 1 2 3 4 3 2 3 3 5 4 2 3 3 6 6 2 2 2 3 3 4 4 4 4 4 2 2 4 4 3 3 3 3 2 2 4 4 4 4 3 4 3 3 3 2 3 4 4 4 4 4
3 1 4 2 3 1 5 2 3 5 4 2 4 3 9 9 6 3 3 1 3 4 5 4 4 3 4 3 5 6 4 3 4 3 3 2 1 1 2 2 1 5 3 3 3 3 3 3 4 5 5 4 3 4
3 2 3 4 3 2 2 4 5 2 1 2 4 3 4 3 2 2 1 3 3 5 5 4 2 2 4 4 3 2 5 5 6 5 4 2 1 4 3 3 2 1 1 1 3 6 5 5 6 6 6 5 3 4
1 2 4 2 4 3 2 1 0 2 1 0 1 3 3 3 3 1 3 5 5 5 5 4 6 5 4 5 4 1 1 2 3 5 5 4 5 3 4 5 3 2 2 2 1 3 10 9 9 4 5 5 4 5
2 2 3 3 2 1 1 2 2 1 1 1 0 1 3 5 4 3 4 4 4 5 6 5 4 3 6 4 4 4 2 3 6 6 3 2 2 3 3 3 3 3 3 3 5 5 7 5 4 6 7 7 7 7
3 3 3 2 2 2 2 2 1 1 2 1 2 1 4 3 5 3 3 5 5 5 4 6 6 6 5 4 3 3 3 3 6 5 7 4 3 3 3 3 3 3 4 5 5 5 6 7 6 7 7 8 8 7
2 2 2 3 3 3 3 3 4 4 3 2 3 1 2 3 7 4 3 2 4 5 5 4 4 5 7 7 6 4 4 4 7 8 7 7 7 6 3 3 3 5 7 6 6 7 8 10 8 7 8 8 8 7
Wind_Direction
253 255 246 253 276 225 214 214 214 205 196 194 194 190 195 202 139 122 311 239 124 61 288 299 170 158 153 166 149 149 114 242 110 175 175 165 192 208 148 157 172 164 164 178 190 228 270 161 78 189 206 124 151 134
269 244 239 256 242 246 212 208 210 203 193 188 184 176 177 147 164 140 263 176 139 148 202 302 272 280 232 188 132 185 147 159 160 162 177 136 184 142 166 215 175 216 186 181 188 202 223 204 204 213 22 340 222 130
231 243 241 251 238 240 204 202 205 204 189 181 177 166 164 144 77 208 136 305 75 101 346 171 210 175 153 225 163 137 234 173 178 178 151 174 206 147 176 223 183 261 177 193 94 231 238 212 258 234 211 232 245 239
252 240 252 267 252 233 201 197 200 193 188 183 175 175 168 142 37 199 200 28 56 91 204 246 55 193 169 158 200 213 133 122 101 112 125 166 194 171 214 196 201 182 144 161 266 281 282 256 233 227 233 231 245 225
254 243 255 259 251 243 196 193 196 184 175 177 178 174 170 153 35 200 247 200 219 260 205 245 336 220 271 162 152 130 146 139 134 138 151 200 167 128 246 49 225 188 176 179 213 207 196 240 211 194 205 233 246 218
255 267 270 262 235 238 180 178 165 181 170 167 169 162 161 130 156 227 331 213 177 210 91 243 293 4 109 182 147 154 164 123 130 148 171 211 226 140 188 228 210 197 206 195 198 187 202 188 262 343 234 289 287 250
275 279 264 251 203 208 177 178 171 164 163 155 153 156 150 130 134 195 202 287 337 139 249 201 236 167 138 82 55 74 89 131 117 143 189 165 198 166 231 232 197 211 218 219 190 115 320 178 200 27 150 271 137 153
291 267 251 171 199 184 161 159 159 154 149 149 152 148 142 105 296 304 277 229 232 125 166 220 132 165 188 143 164 207 113 106 161 157 130 170 119 114 242 173 186 185 206 232 221 193 3 131 73 41 17 16 22 345
328 264 169 155 158 149 143 143 144 143 139 135 134 123 94 101 199 238 304 298 27 223 189 210 155 181 162 133 115 96 145 154 111 167 191 163 157 213 222 168 186 169 180 254 357 341 36 79 93 49 43 16 39 319
323 308 161 149 148 146 140 140 143 134 132 123 75 109 187 206 261 289 180 168 216 206 183 210 121 158 179 138 132 123 176 157 165 202 123 191 240 129 62 49 50 49 42 23 78 124 29 47 44 20 6 295 314 349
44 31 135 139 139 139 145 141 137 130 106 61 114 184 228 320 197 217 223 203 178 197 172 160 163 128 209 172 149 186 170 168 191 191 175 193 240 155 103 92 65 49 31 35 23 70 68 40 349 338 337 342 359 357
63 37 12 138 143 153 143 142 132 88 133 132 123 109 60 216 211 250 207 151 229 203 165 170 160 135 170 176 141 179 174 164 229 143 185 208 197 99 98 71 50 36 23 34 14 27 36 39 25 343 321 340 348 312
44 82 38 91 119 134 147 146 132 122 109 64 67 52 147 252 253 235 166 228 156 174 165 165 142 128 118 195 161 175 203 188 127 176 216 218 89 73 53 61 88 43 34 46 40 30 19 22 38 37 353 338 332 324
38 52 103 134 150 150 151 144 138 115 79 94 120 271 182 229 247 353 322 272 181 150 156 159 113 144 150 164 194 203 197 137 188 201 218 122 146 137 99 46 59 34 30 35 38 26 36 30 19 28 18 356 342 346
35 70 63 69 154 162 166 158 148 54 99 131 111 233 228 310 229 248 277 297 324 343 131 123 97 156 155 207 200 162 234 197 181 197 153 123 121 120 96 77 69 51 28 46 30 33 33 31 39 39 15 1 356 349
235 266 182 177 188 188 176 134 68 65 41 94 258 311 202 112 256 302 253 273 285 274 90 80 193 186 220 240 173 203 157 223 203 115 91 111 99 92 101 94 83 57 32 39 39 33 39 40 35 16 31 17 352 1
184 174 195 161 105 84 124 99 121 172 189 182 245 57 334 252 218 26 309 10 322 258 207 161 212 216 93 77 99 333 202 184 135 98 80 85 110 120 122 108 97 81 69 45 33 14 25 13 70 54 43 3 335 353
114 130 131 140 101 69 43 21 162 198 209 140 165 172 182 352 306 147 33 14 309 307 223 160 138 135 141 157 242 179 94 67 86 101 105 102 103 92 73 92 72 63 69 48 22 31 40 47 51 37 17 345 0 11
111 85 343 236 197 115 122 83 4 196 192 151 126 235 123 122 78 43 348 338 299 284 332 53 60 65 184 68 123 100 123 130 133 112 92 82 96 105 102 98 90 66 62 40 25 30 41 63 55 28 359 354 21 331
84 51 53 34 119 115 100 77 231 134 174 203 126 111 63 41 35 36 349 358 313 81 57 113 174 78 64 64 316 88 106 114 119 107 101 108 102 96 68 67 59 29 62 49 54 30 35 56 39 19 4 20 19 26
70 4 33 53 50 56 62 20 66 24 140 134 75 127 107 163 88 36 9 329 69 87 143 168 93 82 14 38 360 37 60 87 95 73 133 134 124 100 99 85 83 55 61 35 24 19 32 35 3 351 3 12 18 352
231 50 79 21 81 64 73 2 20 26 9 64 103 359 97 123 82 28 327 354 63 109 63 112 114 132 113 65 29 26 65 83 91 101 91 114 126 127 112 59 85 92 85 71 44 29 19 7 348 340 6 10 76 33
45 49 51 40 93 62 275 34 75 354 133 149 202 107 48 62 46 13 298 298 169 31 59 77 87 33 94 98 68 40 33 60 87 90 88 90 96 92 109 95 87 115 120 48 30 34 13 344 342 342 323 28 99 65
31 51 57 56 57 154 66 20 27 78 50 38 85 108 153 290 328 185 217 231 208 110 109 134 131 88 42 31 79 98 228 85 101 55 34 120 118 63 91 105 81 72 98 120 25 21 15 336 325 0 39 66 60 65
93 350 66 2 341 73 65 27 354 59 107 311 102 121 274 355 76 95 220 252 190 195 159 140 146 103 129 123 94 142 268 130 140 133 277 96 110 73 54 56 103 159 161 102 80 72 319 359 43 56 59 78 88 78
175 345 89 173 300 111 191 121 172 170 128 76 7 252 7 85 77 237 233 193 194 171 170 179 162 132 303 176 147 163 211 195 123 108 216 169 159 144 158 152 155 276 182 134 118 81 36 29 72 79 67 66 91 96
142 205 30 218 105 106 59 34 50 100 141 167 198 113 80 108 236 250 250 229 157 217 150 148 147 149 167 154 89 67 103 103 126 157 134 112 99 108 131 147 162 211 156 130 128 135 131 69 95 97 86 55 82 120
103 122 151 178 62 23 128 77 132 189 204 247 87 171 174 192 227 234 181 191 123 90 78 60 62 102 110 132 132 124 88 88 76 69 59 43 80 94 115 105 113 138 135 149 161 158 155 154 134 121 113 105 70 68
66 342 80 53 33 37 160 166 198 230 251 113 154 220 245 244 225 156 187 143 130 119 114 116 25 64 68 62 70 90 133 145 123 115 148 214 344 281 188 151 125 118 137 145 230 183 177 139 128 125 122 110 97 75
291 356 89 92 119 207 235 76 223 324 335 292 292 304 291 270 236 147 128 152 167 176 165 150 147 156 154 148 149 46 283 171 148 138 156 189 214 212 148 154 163 179 156 160 208 144 120 102 106 84 93 99 100 102
311 339 70 53 134 311 336 305 257 256 283 298 51 222 269 310 303 213 203 179 154 130 134 143 152 168 151 152 153 141 242 237 201 206 191 186 134 126 140 149 152 145 139 122 117 114 120 110 121 125 122 115 111 117
9 66 114 108 285 297 3 28 354 3 327 5 273 323 309 337 272 225 201 156 149 165 183 161 159 184 175 145 139 131 137 152 159 170 164 148 140 133 125 122 119 116 120 125 120 120 122 124 124 131 134 136 138 137
35 29 36 81 26 355 327 51 21 337 1 323 280 226 245 199 245 266 316 29 174 169 166 160 147 141 152 153 153 142 128 130 142 144 139 139 144 143 127 128 129 131 128 121 121 128 133 134 132 134 134 135 136 135